Flag for Netherlands Weather past 2 weeks in Hilversum, Netherlands

Now
76 °F

Passing clouds.


Feels Like: 78 °F
Forecast: 62 / 71 °F
Wind: 5 mph from Northeast

Location: De Bilt

Current Time: Jul 24, 2014 at 9:25:07 PM

Latest Report: Jul 24, 2014 at 8:00 PM


Visibility: 25 mi

Pressure: 29.98 "Hg

Humidity: 54%

Dew point: 58 °F

Location of HilversumLocation

Historic Weather in Hilversum — Graph

°F

Hilversum temperature yesterday

Maximum temperature yesterday: 83 °F (at 4:00 PM)
Minimum temperature yesterday: 67 °F (at 5:00 AM)
Average temperature yesterday: 75 °F

Past Weeks' High & Low Weather Summary

 TemperatureHumidityPressure
High90 °F (Jul 19, 3:00 PM)100% (Jul 10, 4:00 AM)30.19 "Hg (Jul 10, 4:00 AM)
Low56 °F (Jul 15, 1:00 AM)31% (Jul 19, 2:00 PM)29.71 "Hg (Jul 13, 7:00 PM)
Average70 °F78%29.96 "Hg
* Reported Jul 9 8:00 PM — Jul 24 8:00 PM, Hilversum, Weather by CustomWeather, © 2014

Note: Actual official high and low records may vary slightly from our data, if they occured in-between our weather recording intervals... More about our weather records

Advertising

Hilversum weather history for previous 24 hours

 ConditionsComfort  
Time TempWeatherWind HumidityBarometerVisibility
8:00 PM
Jul 24
76 °FPassing clouds.5 mph54%29.98 "Hg25 mi
7:00 PM76 °FPassing clouds.7 mph45%29.98 "Hg25 mi
6:00 PM77 °FOvercast.6 mph50%29.99 "Hg22 mi
5:00 PM78 °FPassing clouds.6 mph40%29.99 "Hg19 mi
4:00 PM78 °FPartly sunny.8 mph46%30.00 "Hg22 mi
3:00 PM79 °FScattered clouds.6 mph48%30.00 "Hg19 mi
2:00 PM78 °FPassing clouds.7 mph49%30.01 "Hg22 mi
1:00 PM77 °FSunny.6 mph57%30.02 "Hg18 mi
12:00 PM75 °FPassing clouds.7 mph53%30.02 "Hg25 mi
11:00 AM74 °FSunny.6 mph53%30.03 "Hg25 mi
10:00 AM69 °FScattered clouds.5 mph63%30.03 "Hg19 mi
9:00 AM68 °FPassing clouds.5 mph70%30.03 "Hg19 mi
8:00 AM66 °FSunny.5 mph74%30.03 "Hg22 mi
7:00 AM64 °FScattered clouds.6 mph78%30.03 "Hg22 mi
6:00 AM62 °FSunny.3 mph83%30.02 "Hg22 mi
5:00 AM63 °FClear.3 mph81%30.02 "Hg22 mi
4:00 AM64 °FClear.3 mph77%30.03 "Hg28 mi
3:00 AM65 °FClear.5 mph77%30.03 "Hg25 mi
2:00 AM67 °FClear.5 mph77%30.04 "Hg25 mi
1:00 AM67 °FClear.3 mph78%30.05 "Hg22 mi
12:00 AM69 °FClear.3 mph70%30.06 "Hg28 mi
11:00 PM
Jul 23
70 °FClear.2 mph68%30.06 "Hg28 mi
10:00 PM73 °FClear.3 mph59%30.05 "Hg28 mi
9:00 PM76 °FSunny.5 mph49%30.04 "Hg28 mi
Weather by CustomWeather, © 2014

See weather overviewHow to use our weather pages